Location: Newark
(42.7133°N, 87.7910°W)
Time: 15:18:28
(UTC+00:00)

Vanguard 1 Rocket - Pass Details

Date: 25 September 2019
Orbit: 650 x 4226 km, 34.3° (Epoch: 17 October)

Event Time Altitude Azimuth Distance (km) Brightness Sun altitude
Rises 03:04:09 0° 276° (W) 7,437 12.8 -35.0°
Reaches altitude 10° 03:10:11 10° 272° (W) 5,869 12.0 -35.8°
Enters shadow 03:24:14 43° 212° (SSW) 2,465 9.3 -37.8°
